Flag for Germany Weather past 2 weeks in Rüsselsheim, Hesse, Germany

Now
43 °F

Mostly cloudy.


Feels Like: 37 °F
Forecast: 40 / 44 °F
Wind: 13 mph from West

Location: Wiesbaden Airport

Current Time: Dec 20, 2014 at 4:37:59 PM

Latest Report: Dec 20, 2014 at 3:58 PM


Visibility: N/A

Pressure: 30.16 "Hg

Humidity: 83%

Dew point: 38 °F

Location of RüsselsheimLocation

Historic Weather in Rüsselsheim — Graph

°F

Rüsselsheim temperature yesterday

Maximum temperature yesterday: 54 °F (at 1:58 AM)
Minimum temperature yesterday: 43 °F (at 10:58 PM)
Average temperature yesterday: 50 °F

Past Weeks' High & Low Weather Summary

 TemperatureHumidityPressure
High55 °F (Dec 18, 9:01 PM)100% (Dec 6, 4:58 AM)30.46 "Hg (Dec 6, 4:58 AM)
Low31 °F (Dec 8, 9:58 PM)70% (Dec 9, 1:00 PM)29.62 "Hg (Dec 12, 6:58 PM)
Average41 °F92%30.04 "Hg
* Reported Dec 5 2:58 PM — Dec 20 2:58 PM, Rüsselsheim, Weather by CustomWeather, © 2014

Note: Actual official high and low records may vary slightly from our data, if they occured in-between our weather recording intervals... More about our weather records

Advertising

Rüsselsheim weather history for previous 24 hours

 ConditionsComfort  
Time TempWeatherWind HumidityBarometerVisibility
2:58 PM
Dec 20
43 °FCloudy.17 mph87%30.17 "HgN/A
1:58 PM43 °FLight rain. More clouds than sun.16 mph86%30.18 "HgN/A
12:58 PM43 °FLight rain. Mostly cloudy.14 mph87%30.20 "HgN/A
12:02 PM43 °FMostly cloudy.10 mph81%30.19 "HgN/A
11:58 AM43 °FLight rain. Mostly cloudy.10 mph81%30.22 "HgN/A
10:58 AM42 °FMore clouds than sun.13 mph84%30.23 "HgN/A
9:58 AM40 °FOvercast.12 mph85%30.25 "HgN/A
8:58 AM39 °FOvercast.7 mph88%30.26 "HgN/A
7:58 AM37 °FPassing clouds.8 mph87%30.26 "HgN/A
6:58 AM36 °FClear.6 mph93%30.25 "HgN/A
5:58 AM37 °FClear.9 mph87%30.25 "HgN/A
4:58 AM37 °FClear.9 mph93%30.25 "HgN/A
3:58 AM38 °FClear.9 mph88%30.24 "HgN/A
2:58 AM37 °FClear.8 mph89%30.24 "HgN/A
1:58 AM39 °FClear.6 mph87%30.22 "HgN/A
12:58 AM42 °FClear.10 mph77%30.19 "HgN/A
11:58 PM
Dec 19
43 °FClear.10 mph74%30.18 "HgN/A
10:58 PM43 °FClear.13 mph81%30.15 "HgN/A
9:58 PM45 °FClear.13 mph76%30.12 "HgN/A
8:58 PM45 °FClear.15 mph81%30.09 "HgN/A
7:58 PM46 °FPassing clouds.14 mph79%30.04 "HgN/A
7:01 PM48 °FPassing clouds.15 mph82%30.01 "HgN/A
5:59 PM50 °FLight rain. Partly cloudy.10 mph94%29.97 "HgN/A
4:58 PM51 °FLight rain. Partly cloudy.16 mph95%29.94 "HgN/A
Weather by CustomWeather, © 2014

See weather overviewHow to use our weather pages